THY8412 LPPT-LTFM

Flight info

Callsign THY8412
Flight time N/A
Altitude 36000
Route ORVED DCT UREDI DCT DIPOL DCT RBO DCT PINAR DCT SEGRE DCT BRITO DCT PISUS DCT PONEN DCT SEROX N870 BCN DCT DIPES N725 OSPOK DCT NOLVI DCT ORKUM DCT ELSAG DCT ALG DCT ARSIK DCT MOROB DCT ADRUX DCT ROXAN DCT POKAV DCT GOKEL DCT LIMJA DCT TIRCA DCT PINDO DCT PEREN UN644 DIGTI T162 DRAMO
Aircraft B77W/H-SDE1E2E3FGHIJ2J3J4J5M1RWXY/LB1D1

Departure

Time 2026-05-07 11:26
Airport Lisbon Humberto Delgado Airport (LPPT)

Arrival

Time N/A
Airport İstanbul Airport (LTFM)
Time Latitude Longitude Altitude Speed Heading
2026-05-07 10:58 38.77425 -9.13159 327 ft 0 kts 78°
2026-05-07 11:15 38.77425 -9.13162 327 ft 2 kts 78°
2026-05-07 11:15 38.77422 -9.13182 328 ft 2 kts 84°
2026-05-07 11:15 38.77422 -9.13201 328 ft 2 kts 97°
2026-05-07 11:16 38.77424 -9.13219 328 ft 2 kts 106°
2026-05-07 11:16 38.77430 -9.13238 329 ft 2 kts 116°
2026-05-07 11:16 38.77437 -9.13255 329 ft 2 kts 127°
2026-05-07 11:16 38.77447 -9.13269 330 ft 2 kts 137°
2026-05-07 11:17 38.77459 -9.13281 330 ft 2 kts 147°
2026-05-07 11:17 38.77471 -9.13290 331 ft 2 kts 156°
2026-05-07 11:17 38.77486 -9.13297 331 ft 1 kts 167°
2026-05-07 11:17 38.77490 -9.13298 331 ft 0 kts 169°
2026-05-07 11:19 38.77470 -9.13293 331 ft 8 kts 169°
2026-05-07 11:19 38.77422 -9.13280 329 ft 12 kts 168°
2026-05-07 11:20 38.77337 -9.13285 326 ft 12 kts 231°
2026-05-07 11:20 38.77316 -9.13391 326 ft 11 kts 257°
2026-05-07 11:20 38.77301 -9.13472 330 ft 6 kts 257°
2026-05-07 11:20 38.77294 -9.13509 332 ft 2 kts 257°
2026-05-07 11:21 38.77291 -9.13530 332 ft 3 kts 257°
2026-05-07 11:21 38.77284 -9.13570 335 ft 5 kts 258°
2026-05-07 11:21 38.77276 -9.13621 340 ft 5 kts 258°
2026-05-07 11:21 38.77270 -9.13656 344 ft 3 kts 258°
2026-05-07 11:22 38.77266 -9.13682 347 ft 3 kts 258°
2026-05-07 11:22 38.77256 -9.13745 351 ft 10 kts 259°
2026-05-07 11:22 38.77208 -9.13856 353 ft 19 kts 202°
2026-05-07 11:22 38.77099 -9.13916 353 ft 24 kts 203°
2026-05-07 11:23 38.77085 -9.13923 353 ft 24 kts 201°
2026-05-07 11:23 38.76925 -9.14008 346 ft 25 kts 203°
2026-05-07 11:24 38.76757 -9.14102 342 ft 26 kts 204°
2026-05-07 11:24 38.76624 -9.14170 343 ft 12 kts 206°
2026-05-07 11:24 38.76595 -9.14245 343 ft 9 kts 282°
2026-05-07 11:24 38.76620 -9.14317 343 ft 8 kts 295°
2026-05-07 11:25 38.76652 -9.14376 343 ft 7 kts 332°
2026-05-07 11:25 38.76704 -9.14364 342 ft 10 kts 23°
2026-05-07 11:25 38.77034 -9.14183 349 ft 102 kts 21°
2026-05-07 11:25 38.77983 -9.13676 437 ft 188 kts 21°
2026-05-07 11:26 38.79315 -9.12958 1289 ft 217 kts 21°
2026-05-07 11:26 38.80526 -9.12141 2979 ft 192 kts 29°
2026-05-07 11:26 38.81691 -9.11301 3719 ft 201 kts 27°
2026-05-07 11:26 38.82966 -9.10408 4304 ft 220 kts 29°
2026-05-07 11:27 38.84381 -9.09370 4944 ft 240 kts 29°
2026-05-07 11:27 38.85862 -9.08273 5600 ft 259 kts 30°
2026-05-07 11:27 38.87487 -9.07066 6367 ft 275 kts 30°
2026-05-07 11:27 38.89063 -9.05743 7395 ft 277 kts 43°
2026-05-07 11:28 38.90224 -9.03736 8328 ft 283 kts 62°
2026-05-07 11:28 38.91099 -9.01495 9278 ft 288 kts 65°
2026-05-07 11:28 38.91978 -8.99113 9829 ft 292 kts 66°
2026-05-07 11:28 38.92850 -8.96759 9920 ft 294 kts 66°
2026-05-07 11:29 38.93744 -8.94360 9923 ft 294 kts 66°
2026-05-07 11:29 38.94633 -8.91978 9929 ft 299 kts 66°
2026-05-07 11:29 38.95602 -8.89372 9931 ft 340 kts 65°
2026-05-07 11:29 38.96690 -8.86446 9933 ft 370 kts 65°
2026-05-07 11:30 38.98199 -8.82395 9924 ft 375 kts 65°
2026-05-07 11:30 38.98955 -8.80366 9919 ft 375 kts 65°
2026-05-07 11:30 39.00097 -8.77294 9891 ft 375 kts 65°
2026-05-07 11:30 39.01217 -8.74277 9903 ft 375 kts 65°
2026-05-07 11:31 39.02358 -8.71199 9897 ft 375 kts 65°
2026-05-07 11:31 39.03480 -8.68171 9900 ft 375 kts 66°
2026-05-07 11:31 39.04604 -8.65134 9890 ft 375 kts 66°
2026-05-07 11:31 39.05724 -8.62104 9900 ft 374 kts 65°
2026-05-07 11:32 39.07960 -8.56045 9897 ft 373 kts 65°
2026-05-07 11:32 39.09092 -8.52970 9895 ft 374 kts 65°
2026-05-07 11:32 39.10207 -8.49942 9895 ft 374 kts 66°
2026-05-07 11:33 39.11337 -8.46868 9897 ft 375 kts 65°
2026-05-07 11:33 39.12450 -8.43839 9897 ft 375 kts 66°
2026-05-07 11:33 39.13584 -8.40748 9895 ft 375 kts 65°
2026-05-07 11:33 39.14714 -8.37665 9892 ft 374 kts 65°
2026-05-07 11:34 39.15822 -8.34639 9899 ft 374 kts 66°
2026-05-07 11:34 39.16952 -8.31551 9892 ft 373 kts 66°
2026-05-07 11:34 39.18092 -8.28429 9902 ft 373 kts 66°
2026-05-07 11:34 39.19218 -8.25343 9894 ft 372 kts 66°
2026-05-07 11:35 39.20361 -8.22212 9891 ft 372 kts 66°
2026-05-07 11:35 39.21464 -8.19184 9897 ft 372 kts 66°
2026-05-07 11:35 39.22574 -8.16131 9892 ft 372 kts 66°
2026-05-07 11:35 39.23707 -8.13014 9905 ft 381 kts 66°
2026-05-07 11:36 39.24861 -8.09835 10805 ft 391 kts 66°
2026-05-07 11:36 39.25995 -8.06710 12266 ft 386 kts 66°
2026-05-07 11:36 39.27132 -8.03570 13460 ft 388 kts 65°
2026-05-07 11:36 39.28274 -8.00384 14317 ft 398 kts 67°
2026-05-07 11:37 39.29272 -7.96994 15259 ft 406 kts 70°
2026-05-07 11:37 39.30237 -7.93564 16252 ft 412 kts 69°
2026-05-07 11:37 39.31231 -7.90054 17238 ft 417 kts 69°
2026-05-07 11:37 39.32245 -7.86495 18132 ft 425 kts 68°
2026-05-07 11:38 39.33270 -7.82906 19053 ft 431 kts 68°
2026-05-07 11:38 39.34324 -7.79222 20013 ft 436 kts 67°
2026-05-07 11:38 39.35391 -7.75496 20886 ft 442 kts 67°
2026-05-07 11:38 39.36474 -7.71717 21734 ft 448 kts 66°
2026-05-07 11:39 39.37565 -7.67903 22555 ft 454 kts 66°
2026-05-07 11:39 39.38766 -7.64083 23333 ft 458 kts 60°
2026-05-07 11:39 39.40201 -7.60308 24065 ft 464 kts 58°
2026-05-07 11:39 39.41655 -7.56554 24801 ft 471 kts 58°
2026-05-07 11:40 39.43145 -7.52697 25535 ft 476 kts 58°
2026-05-07 11:40 39.44636 -7.48834 26224 ft 483 kts 58°
2026-05-07 11:40 39.46154 -7.44889 26857 ft 490 kts 58°
2026-05-07 11:40 39.47693 -7.40885 27507 ft 496 kts 58°
2026-05-07 11:41 39.49244 -7.36841 28212 ft 501 kts 57°
2026-05-07 11:41 39.50790 -7.32804 28840 ft 507 kts 57°
2026-05-07 11:41 39.52387 -7.28627 29412 ft 514 kts 57°
2026-05-07 11:41 39.53975 -7.24465 30089 ft 517 kts 57°
2026-05-07 11:42 39.55586 -7.20237 30793 ft 520 kts 57°
2026-05-07 11:42 39.57184 -7.16036 31694 ft 517 kts 57°
2026-05-07 11:42 39.58774 -7.11842 32658 ft 512 kts 57°
2026-05-07 11:42 39.60336 -7.07721 33572 ft 507 kts 57°
2026-05-07 11:43 39.61890 -7.03615 34356 ft 503 kts 57°
2026-05-07 11:43 39.63450 -6.99494 34812 ft 504 kts 57°
2026-05-07 11:43 39.65008 -6.95375 35180 ft 505 kts 58°
2026-05-07 11:43 39.66583 -6.91202 35606 ft 505 kts 58°
2026-05-07 11:44 39.68144 -6.87063 35799 ft 508 kts 59°
2026-05-07 11:44 39.71243 -6.78820 35853 ft 505 kts 59°
2026-05-07 11:45 39.74383 -6.70445 35853 ft 506 kts 59°
2026-05-07 11:45 39.77527 -6.62038 35845 ft 504 kts 59°
2026-05-07 11:46 39.80633 -6.53708 35852 ft 505 kts 59°
2026-05-07 11:46 39.83711 -6.45429 35878 ft 503 kts 60°
2026-05-07 11:47 39.86762 -6.37144 35889 ft 504 kts 62°
2026-05-07 11:47 39.89584 -6.28647 35877 ft 503 kts 63°
2026-05-07 11:48 39.92384 -6.20163 35879 ft 503 kts 63°
2026-05-07 11:48 39.95188 -6.11672 35881 ft 504 kts 63°
2026-05-07 11:49 39.97993 -6.03166 35871 ft 502 kts 63°
2026-05-07 11:49 40.00791 -5.94664 35878 ft 503 kts 63°
2026-05-07 11:50 40.03605 -5.86096 35904 ft 504 kts 64°
2026-05-07 11:50 40.06375 -5.77634 35891 ft 503 kts 64°
2026-05-07 11:51 40.09171 -5.69070 35741 ft 506 kts 64°
2026-05-07 11:51 40.10574 -5.64764 35913 ft 502 kts 64°
2026-05-07 11:51 40.11947 -5.60538 35909 ft 500 kts 64°
2026-05-07 11:52 40.14720 -5.51993 35898 ft 502 kts 65°
2026-05-07 11:52 40.17473 -5.43487 35905 ft 500 kts 65°
2026-05-07 11:53 40.20231 -5.34934 35905 ft 499 kts 66°
2026-05-07 11:53 40.22972 -5.26410 35887 ft 500 kts 66°
2026-05-07 11:54 40.25726 -5.17816 35885 ft 499 kts 66°